TITAN 3C TRANSTAGE DEB, 43452

Orbit data source: Space-Track

TITAN 3C TRANSTAGE DEB, 43452 is space debris in GEO originally from a launch on Sun, 09 Feb 1969 UTC launched from the Air Force Eastern Test Range (AFETR). Debris objects in space refer to the collection of defunct objects orbiting the Earth. Examples of debris include non-operational satellites, rocket bodies, and fragments generated from explosions, collisions, or faulty payload assembly.

Not visible in the next 10 days
Identifier
43452, 1969-013K
Orbit
GEO
Country
Flag of USUS
Related business
Manufacturer
Martin Marietta
Mission
Spacecraft
Bus & Motor
Unknown
Mass
Unknown
Launch date (UTC)
1969-02-09 (57 years ago)
Launch vehicle
Unknown
Launch site
Air Force Eastern Test Range (AFETR)
Object type
Payload
Rocket body
Debris
Shape & HBR
Unknown shape, 1.1 m
Radar Cross Section
RCS unknown

Expand to show TLE details & history
Last TLE update: 1 day ago

TLE from 1 day ago
0 TITAN 3C TRANSTAGE DEB
1 43452U 69013K   25304.81468367 -.00000076  00000-0  00000-0 0  9998
2 43452   0.6861 149.6422 0565535 322.1498 254.3331  1.03158231 28439
Epoch: 2025-10-31T19:33Z
TLE epoch observation values (Epoch: 2025-10-31T19:33:08.669Z)
Latitude
-0.32917°
Longitude
26.35847°
Altitude
35,743.093 km
Speed
3.048 km/s
True Right ascension
23h 59m 59s
True Declination
0° 19' 44"
Sunlit
Object was in daylight at epoch
Visualization orbit readout
Latitude
Unknown
Longitude
Unknown
Altitude
Unknown
Speed
Unknown
Apparent Right ascension
Unknown
Apparent Declination
Unknown
Sunlit
N/A
Visualization observer readout
Local Sidereal Time
22:20:34
Azimuth
Unknown
Elevation
Unknown
Doppler factor
Unknown
Orbital elements
Apogee altitude
37,337.375 km
Perigee altitude
32,657.507 km
Semi-major axis
41,375.578 km
Eccentricity
0.05655
Inclination
0.6861°
RAAN
149.6422°
Arg. of periapsis
322.1498°
True anomaly
248.22186°
Mean anomaly
254.3331°
Eccentric anomaly
251.26452°
Mean motion
0.25789 °/min
Orbital period
1,395.97 mins
BSTAR
0
Loading maneuver chart data...
Computing Atmospheric mass density...

Documentation

Showing up to 5 results
|